Location: Newark
(48.4472°N, 1.4892°E)
Time: 16:34:56
(UTC+00:00)

Transit 4A - Pass Details

Date: 29 November 2019
Orbit: 870 x 975 km, 66.8° (Epoch: 08 December)

Event Time Altitude Azimuth Distance (km) Brightness Sun altitude
Rises 20:12:41 0° 226° (SW) 3,619 11.3 -40.6°
Reaches altitude 10° 20:15:18 10° 230° (SW) 2,663 10.6 -41.0°
Enters shadow 20:16:23 16° 232° (SW) 2,277 10.2 -41.2°
